FDX1283 KIND-KMEM

Flight info

Callsign FDX1283
Flight time 0h 59m
Altitude 28000
Route OOM5 PXV BLUZZ5
Aircraft B77L/H-SDE1E2E3FGHIJ2J3J4J5M1RWXY/LB1D1

Departure

Time 2026-05-08 03:57
Airport Indianapolis International Airport (KIND)

Arrival

Time 2026-05-08 04:57
Airport Memphis International Airport (KMEM)
Time Latitude Longitude Altitude Speed Heading
2026-05-08 03:36 39.71243 -86.28540 791 ft 0 kts 315°
2026-05-08 03:48 39.71241 -86.28537 791 ft 2 kts 315°
2026-05-08 03:48 39.71227 -86.28521 791 ft 3 kts 326°
2026-05-08 03:48 39.71209 -86.28508 791 ft 3 kts 343°
2026-05-08 03:48 39.71191 -86.28504 792 ft 3 kts 10°
2026-05-08 03:49 39.71176 -86.28511 792 ft 2 kts 42°
2026-05-08 03:49 39.71174 -86.28513 792 ft 0 kts 44°
2026-05-08 03:52 39.71189 -86.28494 792 ft 9 kts 44°
2026-05-08 03:52 39.71250 -86.28416 790 ft 14 kts 45°
2026-05-08 03:53 39.71320 -86.28326 788 ft 14 kts 44°
2026-05-08 03:53 39.71395 -86.28272 788 ft 9 kts 348°
2026-05-08 03:53 39.71443 -86.28320 788 ft 9 kts 316°
2026-05-08 03:53 39.71496 -86.28355 788 ft 9 kts
2026-05-08 03:54 39.71556 -86.28292 786 ft 14 kts 48°
2026-05-08 03:54 39.71610 -86.28178 787 ft 15 kts 69°
2026-05-08 03:54 39.71662 -86.28059 789 ft 15 kts 49°
2026-05-08 03:54 39.71736 -86.27961 789 ft 15 kts 45°
2026-05-08 03:55 39.71811 -86.27865 792 ft 14 kts 44°
2026-05-08 03:55 39.71884 -86.27850 792 ft 12 kts 326°
2026-05-08 03:55 39.71944 -86.27925 790 ft 12 kts 313°
2026-05-08 03:55 39.71940 -86.28002 789 ft 8 kts 225°
2026-05-08 03:56 39.71936 -86.28007 789 ft 0 kts 224°
2026-05-08 03:56 39.71876 -86.28083 787 ft 43 kts 224°
2026-05-08 03:56 39.71476 -86.28592 787 ft 114 kts 224°
2026-05-08 03:57 39.70766 -86.29495 795 ft 167 kts 223°
2026-05-08 03:57 39.69918 -86.30576 1223 ft 175 kts 223°
2026-05-08 03:57 39.69046 -86.31667 1936 ft 170 kts 225°
2026-05-08 03:57 39.68243 -86.32726 2816 ft 162 kts 229°
2026-05-08 03:58 39.67427 -86.33825 3265 ft 176 kts 225°
2026-05-08 03:58 39.66320 -86.34723 3594 ft 201 kts 208°
2026-05-08 03:58 39.64976 -86.35379 4056 ft 214 kts 207°
2026-05-08 03:58 39.63534 -86.36117 4513 ft 233 kts 207°
2026-05-08 03:59 39.61957 -86.36926 4938 ft 250 kts 207°
2026-05-08 03:59 39.60308 -86.37749 5711 ft 257 kts 207°
2026-05-08 03:59 39.58628 -86.38574 6466 ft 264 kts 207°
2026-05-08 03:59 39.56889 -86.39435 7235 ft 269 kts 207°
2026-05-08 04:00 39.55126 -86.40320 7991 ft 274 kts 207°
2026-05-08 04:00 39.53351 -86.41222 8747 ft 279 kts 207°
2026-05-08 04:00 39.51529 -86.42154 9512 ft 284 kts 207°
2026-05-08 04:00 39.49666 -86.43111 10228 ft 291 kts 207°
2026-05-08 04:01 39.47724 -86.44115 10582 ft 312 kts 207°
2026-05-08 04:01 39.45650 -86.45196 10787 ft 338 kts 207°
2026-05-08 04:01 39.43382 -86.46376 11019 ft 363 kts 207°
2026-05-08 04:01 39.40981 -86.47618 11658 ft 375 kts 207°
2026-05-08 04:02 39.38528 -86.48881 12523 ft 382 kts 207°
2026-05-08 04:02 39.36070 -86.50144 13522 ft 387 kts 207°
2026-05-08 04:02 39.33550 -86.51440 14417 ft 391 kts 208°
2026-05-08 04:02 39.31001 -86.52753 15288 ft 395 kts 208°
2026-05-08 04:03 39.28437 -86.54073 16167 ft 398 kts 209°
2026-05-08 04:03 39.23295 -86.56720 17966 ft 403 kts 210°
2026-05-08 04:03 39.20666 -86.58075 18719 ft 408 kts 210°
2026-05-08 04:04 39.18010 -86.59442 19437 ft 412 kts 210°
2026-05-08 04:04 39.15337 -86.60814 20199 ft 414 kts 210°
2026-05-08 04:04 39.12714 -86.62258 20938 ft 414 kts 213°
2026-05-08 04:04 39.10085 -86.63825 21656 ft 417 kts 213°
2026-05-08 04:05 39.07442 -86.65422 22351 ft 421 kts 213°
2026-05-08 04:05 39.04820 -86.67008 23101 ft 423 kts 213°
2026-05-08 04:05 39.02144 -86.68622 23810 ft 425 kts 213°
2026-05-08 04:05 38.99450 -86.70241 24414 ft 428 kts 214°
2026-05-08 04:06 38.96733 -86.71868 25032 ft 431 kts 214°
2026-05-08 04:06 38.94003 -86.73498 25617 ft 433 kts 214°
2026-05-08 04:06 38.91305 -86.75104 26334 ft 431 kts 215°
2026-05-08 04:06 38.88592 -86.76713 27224 ft 426 kts 215°
2026-05-08 04:07 38.85901 -86.78309 27961 ft 426 kts 216°
2026-05-08 04:07 38.83223 -86.79900 28002 ft 421 kts 216°
2026-05-08 04:07 38.77944 -86.83035 28058 ft 417 kts 216°
2026-05-08 04:08 38.72695 -86.86158 28066 ft 419 kts 216°
2026-05-08 04:08 38.67383 -86.89304 28065 ft 421 kts 216°
2026-05-08 04:09 38.62061 -86.92450 28072 ft 421 kts 216°
2026-05-08 04:09 38.56782 -86.95564 28059 ft 419 kts 216°
2026-05-08 04:10 38.51814 -86.99204 28075 ft 403 kts 226°
2026-05-08 04:10 38.47595 -87.03721 28072 ft 392 kts 234°
2026-05-08 04:11 38.43827 -87.08762 28078 ft 392 kts 235°
2026-05-08 04:11 38.40056 -87.13832 28078 ft 394 kts 235°
2026-05-08 04:12 38.36288 -87.18868 28074 ft 395 kts 235°
2026-05-08 04:12 38.32474 -87.23942 28073 ft 396 kts 234°
2026-05-08 04:13 38.28683 -87.28972 28069 ft 396 kts 234°
2026-05-08 04:13 38.24870 -87.34022 28062 ft 395 kts 234°
2026-05-08 04:14 38.21060 -87.39060 28076 ft 394 kts 234°
2026-05-08 04:14 38.17278 -87.44056 28080 ft 394 kts 234°
2026-05-08 04:15 38.13474 -87.49072 28078 ft 393 kts 234°
2026-05-08 04:15 38.09667 -87.54085 28086 ft 394 kts 234°
2026-05-08 04:16 38.05878 -87.59065 28078 ft 394 kts 234°
2026-05-08 04:16 38.02062 -87.64073 28081 ft 395 kts 234°
2026-05-08 04:17 37.98238 -87.69086 28088 ft 395 kts 234°
2026-05-08 04:17 37.94436 -87.74059 28072 ft 395 kts 234°
2026-05-08 04:18 37.89876 -87.78164 28084 ft 414 kts 214°
2026-05-08 04:18 37.84632 -87.81233 28084 ft 416 kts 216°
2026-05-08 04:19 37.79435 -87.84412 28084 ft 418 kts 216°
2026-05-08 04:19 37.74192 -87.87634 28079 ft 419 kts 216°
2026-05-08 04:20 37.68942 -87.90851 28028 ft 418 kts 216°
2026-05-08 04:20 37.63746 -87.94029 28073 ft 417 kts 216°
2026-05-08 04:21 37.58519 -87.97220 28076 ft 416 kts 216°
2026-05-08 04:21 37.53296 -88.00391 28079 ft 416 kts 216°
2026-05-08 04:22 37.48108 -88.03537 28078 ft 416 kts 216°
2026-05-08 04:22 37.42894 -88.06696 28087 ft 415 kts 216°
2026-05-08 04:23 37.37689 -88.09846 28093 ft 415 kts 216°
2026-05-08 04:23 37.32512 -88.12974 28074 ft 415 kts 216°
2026-05-08 04:24 37.27283 -88.16129 28071 ft 416 kts 216°
2026-05-08 04:24 37.22062 -88.19274 28031 ft 416 kts 216°
2026-05-08 04:25 37.16871 -88.22395 28065 ft 416 kts 216°
2026-05-08 04:25 37.11659 -88.25525 28065 ft 415 kts 216°
2026-05-08 04:26 37.06445 -88.28650 28068 ft 415 kts 216°
2026-05-08 04:26 37.01236 -88.31765 28068 ft 415 kts 216°
2026-05-08 04:27 36.96027 -88.34876 28047 ft 414 kts 216°
2026-05-08 04:27 36.90835 -88.37973 28082 ft 413 kts 216°
2026-05-08 04:28 36.85641 -88.41069 28090 ft 413 kts 216°
2026-05-08 04:28 36.80448 -88.44159 28089 ft 414 kts 216°
2026-05-08 04:29 36.75275 -88.47232 28091 ft 414 kts 216°
2026-05-08 04:29 36.70073 -88.50316 28085 ft 413 kts 216°
2026-05-08 04:30 36.64877 -88.53393 28092 ft 412 kts 216°
2026-05-08 04:30 36.59722 -88.56442 28092 ft 413 kts 216°
2026-05-08 04:31 36.54577 -88.59473 27865 ft 403 kts 216°
2026-05-08 04:31 36.52061 -88.60951 27672 ft 396 kts 216°
2026-05-08 04:31 36.49593 -88.62401 27552 ft 388 kts 217°
2026-05-08 04:32 36.47173 -88.63824 27351 ft 381 kts 217°
2026-05-08 04:32 36.44793 -88.65226 27070 ft 376 kts 217°
2026-05-08 04:32 36.42467 -88.66599 26543 ft 375 kts 217°
2026-05-08 04:32 36.40104 -88.67997 25915 ft 377 kts 217°
2026-05-08 04:33 36.37725 -88.69401 25312 ft 378 kts 216°
2026-05-08 04:33 36.35343 -88.70801 24786 ft 378 kts 216°
2026-05-08 04:33 36.32996 -88.72177 24344 ft 376 kts 215°
2026-05-08 04:33 36.30607 -88.73580 24186 ft 383 kts 215°
2026-05-08 04:34 36.28192 -88.74996 24092 ft 382 kts 215°
2026-05-08 04:34 36.25793 -88.76396 23851 ft 381 kts 214°
2026-05-08 04:34 36.23390 -88.77800 23406 ft 380 kts 214°
2026-05-08 04:34 36.21012 -88.79186 22997 ft 376 kts 214°
2026-05-08 04:35 36.18686 -88.80541 22605 ft 371 kts 214°
2026-05-08 04:35 36.16357 -88.81897 22224 ft 367 kts 214°
2026-05-08 04:35 36.14064 -88.83234 21854 ft 363 kts 214°
2026-05-08 04:35 36.11781 -88.84565 21503 ft 360 kts 213°
2026-05-08 04:36 36.09524 -88.85881 21128 ft 357 kts 213°
2026-05-08 04:36 36.07304 -88.87176 20783 ft 357 kts 213°
2026-05-08 04:36 36.05043 -88.88496 20434 ft 360 kts 213°
2026-05-08 04:36 36.02762 -88.89827 20071 ft 362 kts 213°
2026-05-08 04:37 36.00481 -88.91153 19703 ft 361 kts 212°
2026-05-08 04:37 35.98233 -88.92457 19345 ft 360 kts 212°
2026-05-08 04:37 35.95968 -88.93771 18980 ft 360 kts 212°
2026-05-08 04:37 35.93700 -88.95086 18623 ft 359 kts 212°
2026-05-08 04:38 35.91440 -88.96396 18231 ft 358 kts 212°
2026-05-08 04:38 35.89182 -88.97704 17832 ft 357 kts 212°
2026-05-08 04:38 35.86936 -88.99004 17447 ft 355 kts 212°
2026-05-08 04:38 35.84728 -89.00281 17035 ft 354 kts 212°
2026-05-08 04:39 35.82506 -89.01566 16661 ft 350 kts 212°
2026-05-08 04:39 35.80313 -89.02833 16297 ft 345 kts 212°
2026-05-08 04:39 35.78151 -89.04081 15948 ft 341 kts 212°
2026-05-08 04:39 35.76732 -89.04901 15719 ft 339 kts 212°
2026-05-08 04:40 35.73914 -89.06535 15246 ft 333 kts 214°
2026-05-08 04:40 35.72068 -89.08131 14908 ft 317 kts 232°
2026-05-08 04:40 35.71085 -89.09456 14730 ft 319 kts 233°
2026-05-08 04:40 35.69565 -89.11508 14408 ft 327 kts 232°
2026-05-08 04:41 35.68005 -89.13555 14078 ft 328 kts 232°
2026-05-08 04:41 35.65931 -89.16244 13617 ft 325 kts 232°
2026-05-08 04:41 35.64384 -89.18244 13256 ft 321 kts 232°
2026-05-08 04:41 35.63347 -89.19583 13015 ft 318 kts 232°
2026-05-08 04:42 35.61846 -89.21519 12705 ft 315 kts 232°
2026-05-08 04:42 35.60335 -89.23469 12378 ft 314 kts 232°
2026-05-08 04:42 35.58898 -89.25482 12057 ft 311 kts 235°
2026-05-08 04:42 35.57536 -89.27541 11751 ft 310 kts 236°
2026-05-08 04:43 35.56186 -89.29599 11484 ft 307 kts 236°
2026-05-08 04:43 35.54862 -89.31605 11148 ft 303 kts 236°
2026-05-08 04:43 35.53539 -89.33593 10831 ft 298 kts 236°
2026-05-08 04:43 35.52177 -89.35474 10492 ft 293 kts 225°
2026-05-08 04:44 35.50349 -89.36662 10158 ft 303 kts 199°
2026-05-08 04:44 35.48282 -89.37048 9923 ft 298 kts 189°
2026-05-08 04:44 35.46262 -89.37220 9706 ft 291 kts 188°
2026-05-08 04:44 35.44255 -89.37360 9381 ft 286 kts 188°
2026-05-08 04:45 35.42267 -89.37497 8998 ft 285 kts 187°
2026-05-08 04:45 35.40291 -89.37641 8585 ft 284 kts 187°
2026-05-08 04:45 35.38324 -89.37795 8212 ft 282 kts 187°
2026-05-08 04:45 35.36385 -89.37958 7844 ft 281 kts 187°
2026-05-08 04:46 35.34438 -89.38135 7479 ft 279 kts 187°
2026-05-08 04:46 35.32504 -89.38324 7122 ft 278 kts 187°
2026-05-08 04:46 35.30580 -89.38526 6754 ft 276 kts 187°
2026-05-08 04:46 35.28691 -89.38739 6395 ft 275 kts 187°
2026-05-08 04:47 35.26789 -89.38965 6034 ft 273 kts 187°
2026-05-08 04:47 35.24911 -89.39196 5692 ft 269 kts 187°
2026-05-08 04:47 35.23053 -89.39428 5347 ft 266 kts 187°
2026-05-08 04:47 35.21245 -89.39658 5025 ft 263 kts 187°
2026-05-08 04:48 35.19433 -89.39894 4660 ft 261 kts 187°
2026-05-08 04:48 35.17636 -89.40134 4295 ft 257 kts 188°
2026-05-08 04:48 35.15963 -89.40792 4002 ft 253 kts 216°
2026-05-08 04:48 35.14737 -89.42320 4006 ft 255 kts 234°
2026-05-08 04:49 35.13732 -89.44074 4000 ft 255 kts 237°
2026-05-08 04:49 35.12753 -89.45870 3991 ft 253 kts 237°
2026-05-08 04:49 35.11785 -89.47660 4006 ft 251 kts 237°
2026-05-08 04:49 35.10842 -89.49445 4018 ft 250 kts 240°
2026-05-08 04:50 35.09991 -89.51303 4004 ft 250 kts 242°
2026-05-08 04:50 35.09174 -89.53149 4004 ft 250 kts 243°
2026-05-08 04:50 35.08347 -89.55027 4001 ft 250 kts 243°
2026-05-08 04:50 35.07522 -89.56906 4001 ft 251 kts 243°
2026-05-08 04:51 35.06699 -89.58783 4000 ft 252 kts 243°
2026-05-08 04:51 35.05869 -89.60679 3999 ft 252 kts 243°
2026-05-08 04:51 35.05105 -89.62566 3991 ft 248 kts 252°
2026-05-08 04:51 35.04903 -89.64638 4004 ft 247 kts 272°
2026-05-08 04:52 35.04976 -89.66745 4005 ft 249 kts 272°
2026-05-08 04:52 35.05025 -89.68865 4001 ft 247 kts 272°
2026-05-08 04:52 35.05077 -89.70903 3982 ft 231 kts 272°
2026-05-08 04:52 35.05130 -89.72782 3951 ft 213 kts 272°
2026-05-08 04:53 35.05181 -89.74552 3654 ft 209 kts 272°
2026-05-08 04:53 35.05231 -89.76302 3394 ft 203 kts 272°
2026-05-08 04:53 35.05280 -89.78006 3112 ft 198 kts 272°
2026-05-08 04:53 35.05327 -89.79670 2856 ft 196 kts 272°
2026-05-08 04:54 35.05373 -89.81321 2591 ft 193 kts 272°
2026-05-08 04:54 35.05419 -89.82918 2334 ft 182 kts 272°
2026-05-08 04:54 35.05460 -89.84380 2127 ft 168 kts 273°
2026-05-08 04:54 35.05500 -89.85792 1900 ft 164 kts 273°
2026-05-08 04:55 35.05537 -89.87154 1700 ft 158 kts 273°
2026-05-08 04:55 35.05577 -89.88491 1470 ft 157 kts 273°
2026-05-08 04:55 35.05615 -89.89822 1252 ft 156 kts 272°
2026-05-08 04:55 35.05655 -89.91109 1064 ft 151 kts 272°
2026-05-08 04:56 35.05701 -89.92392 841 ft 151 kts 272°
2026-05-08 04:56 35.05733 -89.93665 658 ft 149 kts 271°
2026-05-08 04:56 35.05766 -89.94912 470 ft 146 kts 270°
2026-05-08 04:56 35.05795 -89.96139 336 ft 139 kts 270°
2026-05-08 04:57 35.05822 -89.97145 330 ft 95 kts 272°
2026-05-08 04:57 35.05838 -89.97725 333 ft 42 kts 272°
2026-05-08 04:57 35.05864 -89.97992 335 ft 30 kts 289°
2026-05-08 04:57 35.05939 -89.98154 330 ft 14 kts 309°
2026-05-08 04:58 35.06000 -89.98173 331 ft 8 kts 38°
2026-05-08 04:58 35.06016 -89.98108 333 ft 8 kts 89°
2026-05-08 04:58 35.06013 -89.98038 333 ft 8 kts 92°
2026-05-08 04:58 35.06011 -89.97967 331 ft 9 kts 92°
2026-05-08 04:59 35.06008 -89.97886 334 ft 12 kts 92°
2026-05-08 04:59 35.05999 -89.97761 335 ft 16 kts 102°
2026-05-08 04:59 35.05973 -89.97631 333 ft 16 kts 104°
2026-05-08 04:59 35.05946 -89.97500 332 ft 16 kts 101°
2026-05-08 05:00 35.05938 -89.97364 334 ft 16 kts 92°
2026-05-08 05:00 35.05934 -89.97229 333 ft 16 kts 92°
2026-05-08 05:00 35.05931 -89.97093 335 ft 16 kts 92°
2026-05-08 05:00 35.05942 -89.97016 330 ft 8 kts 37°
2026-05-08 05:01 35.05979 -89.97010 332 ft 4 kts
2026-05-08 05:01 35.05998 -89.97009 333 ft 1 kts
2026-05-08 05:01 35.05999 -89.97009 333 ft 0 kts